Snowfall_Accumulation
0.3 0.0 0.0 0.0 0.0 0.0 0.0 0.0 0.0 0.0 0.0 0.0 0.0 0.0 0.0 0.0 0.0 0.0 0.0 0.0 0.0 0.0 0.0 0.0 0.0 0.0 0.0 0.1 0.0 0.0 0.1 0.3 1.1 0.0 0.0 0.0 0.0 0.0 0.0 0.0 0.0 0.0 0.0
0.6 0.0 0.0 0.0 0.0 0.2 0.0 0.0 0.0 0.0 0.0 0.0 0.0 0.0 0.0 0.1 0.1 0.2 0.2 0.1 0.1 0.1 0.1 0.0 0.0 0.0 0.0 0.0 0.0 0.1 0.3 0.1 0.4 0.4 0.0 0.0 0.0 0.0 0.0 0.0 0.0 0.0 0.0
0.3 0.0 0.0 0.0 0.7 0.3 0.4 0.4 0.2 0.3 0.1 0.2 0.2 0.3 0.3 0.2 0.6 0.9 0.7 0.0 0.4 0.6 0.4 0.3 0.1 0.2 0.2 0.2 0.3 0.4 0.2 0.1 0.1 0.3 0.2 0.0 0.0 0.0 0.0 0.0 0.0 0.0 0.0
0.5 0.2 0.3 0.4 0.6 1.0 1.3 0.6 0.6 0.7 0.4 0.3 0.4 0.5 0.4 0.5 1.8 1.5 1.7 1.3 1.3 1.6 1.6 1.3 0.9 0.7 0.7 1.5 0.3 0.4 0.2 0.3 0.3 0.2 0.1 0.1 0.0 0.0 0.0 0.0 0.0 0.0 0.0
0.2 0.3 0.3 0.0 0.1 0.2 0.2 0.5 1.0 0.8 0.5 0.4 0.8 0.7 0.9 1.2 2.0 3.6 3.6 3.6 2.9 4.4 3.9 2.9 3.0 2.8 1.5 2.1 2.9 2.4 0.8 1.1 1.3 0.9 1.6 1.2 0.8 0.7 0.4 0.1 0.7 0.8 0.5
0.1 0.0 0.1 0.0 0.0 0.1 0.1 0.1 0.1 0.8 0.8 0.7 0.5 0.4 1.1 1.7 2.5 3.0 4.3 5.4 4.5 3.1 4.1 4.7 3.6 3.6 2.5 2.9 2.4 2.6 3.2 2.6 6.3 5.4 3.6 2.8 1.1 1.9 1.8 2.7 3.4 7.7 11.1
0.0 0.0 0.0 0.0 0.0 0.0 0.0 0.0 0.1 0.0 0.1 1.2 1.2 1.0 0.5 0.5 1.6 1.9 2.4 4.9 6.7 6.8 5.3 4.3 4.0 4.6 4.1 3.2 3.4 3.3 2.8 3.1 4.7 7.9 11.5 6.7 6.4 4.0 4.5 7.9 4.5 4.5 4.1
0.0 0.0 0.0 0.0 0.0 0.3 0.9 1.2 1.3 1.1 0.7 0.4 1.0 1.4 1.8 2.1 1.8 1.4 1.6 1.5 2.8 5.6 5.8 4.9 4.2 4.3 4.5 4.8 6.1 8.5 9.4 7.8 7.3 7.6 6.2 6.5 3.0 3.1 4.4 4.5 5.6 7.1 7.2
0.0 0.5 0.6 0.4 0.6 2.5 2.9 2.9 2.5 1.9 2.4 2.2 2.6 3.3 2.8 2.7 2.3 2.0 1.2 1.4 1.7 1.5 1.8 3.7 4.2 3.9 6.5 6.8 11.8 13.3 12.3 9.5 7.6 5.4 5.8 4.8 6.8 5.7 5.9 11.1 14.6 18.6 17.6
2.0 2.4 0.8 3.0 3.4 4.0 3.6 3.4 3.2 2.7 3.3 3.0 3.9 2.9 1.9 3.0 2.4 1.8 1.4 2.0 3.2 1.6 1.1 1.8 4.1 5.5 5.7 6.7 11.1 12.7 14.9 11.8 10.6 8.8 9.0 8.1 6.5 5.8 6.0 5.6 13.2 20.1 15.9
2.2 4.2 4.4 5.3 5.3 4.5 4.9 4.3 3.8 4.3 3.7 4.0 3.6 2.7 2.5 2.6 2.9 1.9 1.4 2.6 4.0 6.7 4.4 5.7 4.2 4.5 8.0 5.7 6.1 9.1 11.6 7.6 8.3 9.1 9.3 10.9 10.8 9.9 10.4 9.3 8.6 14.1 23.4
4.3 4.9 4.7 4.1 4.6 4.3 3.9 4.7 3.9 3.2 3.7 3.6 3.5 4.1 3.9 3.6 2.8 3.1 2.8 2.7 2.9 6.9 10.1 8.9 8.6 8.1 6.4 5.7 5.6 8.0 7.2 6.5 8.8 10.9 10.7 11.8 15.0 15.0 12.1 12.9 11.4 10.4 9.5
3.6 2.7 4.0 3.2 2.9 2.6 3.4 4.3 4.2 3.5 4.0 4.8 4.7 5.8 5.8 5.8 6.4 6.4 5.0 3.5 3.5 7.1 8.4 9.5 9.3 7.8 6.5 7.6 6.6 6.7 7.2 9.8 10.5 10.8 10.0 8.8 10.0 11.3 11.3 11.8 12.6 11.0 10.8
4.5 5.6 4.8 4.4 4.7 4.2 3.9 3.6 3.6 4.7 5.0 5.1 8.4 11.0 11.4 9.6 7.9 6.8 8.4 8.1 7.6 7.5 8.9 9.8 10.6 9.5 8.6 9.1 9.6 8.0 9.4 9.6 9.3 9.5 7.9 6.8 6.4 8.5 10.0 9.9 13.8 12.7 17.1
2.8 3.1 4.6 3.9 3.6 3.0 2.7 3.0 3.1 4.4 4.7 7.3 7.6 9.3 13.5 12.7 14.8 15.5 13.9 13.8 12.0 11.2 12.2 13.5 13.0 9.8 8.8 6.5 5.5 5.1 5.4 5.4 6.8 6.8 6.2 5.3 5.6 6.1 9.2 9.1 10.3 10.5 16.2
2.6 3.4 6.5 4.5 10.4 8.1 8.0 10.5 8.5 7.5 7.3 10.9 13.8 15.3 16.6 15.9 17.3 14.8 13.4 12.2 12.7 10.8 11.6 9.8 8.8 7.8 7.6 7.2 7.9 8.4 6.0 4.8 4.2 5.2 5.5 4.9 6.7 7.7 8.6 8.1 8.2 13.6 14.9
2.1 3.0 5.4 8.0 11.9 16.3 17.7 15.2 21.9 18.5 16.5 16.5 13.5 12.4 11.6 14.0 10.8 14.1 12.7 10.1 9.1 8.6 11.6 9.6 9.3 10.2 8.5 8.5 7.5 8.1 8.0 6.7 5.2 5.8 5.0 7.0 6.2 6.2 7.9 7.8 9.1 10.8 13.6
6.6 10.4 11.5 16.5 20.6 24.7 24.0 26.6 25.8 25.3 22.2 22.2 20.3 20.5 22.2 19.3 19.4 18.1 14.5 13.0 14.7 10.8 11.3 11.7 11.7 10.1 8.8 7.5 7.4 8.0 6.7 6.4 5.8 4.8 5.3 4.8 6.1 6.7 5.4 7.5 8.8 11.8 11.5
15.8 18.3 19.1 22.6 24.9 25.9 27.2 28.8 26.8 25.1 23.9 22.6 23.0 21.7 20.2 18.8 17.2 16.5 15.4 15.8 15.9 13.8 13.2 11.9 13.1 12.7 11.4 10.8 10.2 9.5 9.9 9.5 8.9 6.8 6.8 7.4 7.6 7.4 6.9 4.8 7.1 7.9 9.6
17.2 16.7 16.6 16.9 19.9 22.8 22.6 22.6 23.9 23.5 23.1 23.1 22.5 23.9 19.3 15.7 18.8 21.4 21.3 21.9 23.3 23.9 22.9 20.8 19.2 19.2 18.8 17.7 16.3 14.7 12.8 12.0 11.2 8.5 8.3 8.5 9.4 8.7 8.8 8.9 8.6 12.7 12.1
13.4 13.1 12.9 12.5 13.1 13.6 15.8 17.7 19.1 18.8 19.7 20.7 21.8 21.5 21.2 21.7 24.3 24.8 25.4 25.9 25.2 23.6 23.6 22.4 21.0 19.0 17.6 17.6 17.1 17.1 15.6 15.4 13.6 12.0 11.6 10.5 10.5 11.8 10.2 10.7 9.6 8.5 9.8
8.5 8.5 9.7 11.0 10.4 11.2 13.0 13.3 13.2 12.8 13.4 14.0 15.9 16.8 15.1 16.8 19.3 21.4 22.7 23.7 23.2 21.0 19.5 18.7 17.7 17.7 17.8 18.7 17.7 15.8 15.1 14.5 13.6 12.9 11.9 10.8 10.3 10.4 10.6 11.2 10.1 10.5 10.8
6.2 6.6 6.7 7.3 7.4 7.6 8.9 9.4 12.0 10.8 10.6 11.2 12.2 12.9 13.1 15.3 16.1 16.1 17.6 18.7 17.8 17.8 16.8 16.4 15.8 14.8 13.2 13.4 14.2 15.0 17.5 15.6 14.9 14.0 14.7 12.7 11.3 10.6 11.6 12.4 11.5 11.5 10.6
4.1 4.3 5.0 5.9 6.8 7.0 8.5 9.2 9.0 7.3 9.0 9.8 10.2 11.0 12.2 14.3 15.4 15.8 15.0 15.3 13.5 13.0 12.5 12.8 12.7 13.2 12.2 11.2 12.0 12.7 13.4 13.7 14.0 13.5 13.0 13.1 12.0 11.1 12.1 11.7 10.8 11.2 11.8
4.0 4.5 4.9 6.5 6.4 6.6 6.7 6.7 6.8 7.0 7.9 7.5 9.5 10.0 10.3 10.1 11.1 11.4 11.6 10.7 10.7 10.2 10.7 10.6 11.4 11.8 11.5 11.2 12.0 11.8 11.0 10.8 11.4 11.3 11.1 10.7 11.0 10.0 10.8 12.1 11.2 11.8 10.9
3.8 4.0 3.8 4.0 4.5 5.2 5.8 6.1 6.1 6.1 7.2 7.3 7.8 8.0 8.5 9.1 8.8 8.3 8.0 7.5 7.6 7.7 8.2 8.4 8.6 8.2 8.0 8.5 9.4 8.7 8.1 8.7 10.0 9.4 10.5 10.2 10.5 9.8 9.0 9.6 8.8 10.7 9.8